Weather in Arjang

Sweden     59°23′22″N   12°08′15″E
В апреле 2022 года жителям России запретили посещать сайт meteo.paraplan.net по решению Генеральной прокуратуры. Аудитория сайта уменьшилась в 10 раз. Владельцы сайта не видят смысла в поддержке погодного сервера в таких условиях. Сайт будет закрыт в октябре.
temp.,
°C
wind,
m/s
gust,
m/s
humid.,
%
clouds,
%
prec.,
mm/h
press.,
hPa
HPBL,
m
4 october, tue
tue423:00+7w11885 0.0 101810
02:00+6sw119028 0.0 101710
05:00+6s11915 0.0 101611
08:00+6s2489100 0.0 101479
11:00+11ssw4876100 0.0 1013531
14:00+13sw51076100 0.0 1011923
17:00+12sw51280100 0.0 10091070
20:00+12sw51186100 0.1 1008880
5 october, wed
wed523:00+12ssw51295100 0.1 10061071
02:00+13sw61395100 0.3 10051026
05:00+12sw51294100 0.1 1004682
08:00+12sw41193100 0.1 1004744
11:00+13ssw31092100 0.1 1004727
14:00+13s51397100 3.0 10011095
17:00+14ssw61697100 1.7 9971290
20:00+14ssw81895100 4.4 9951505
6 october, thu
thu623:00+12sw8158250 0.3 9971125
02:00+9wsw615850 0.3 1001837
05:00+8sw6148831 0.0 10021025
08:00+9sw6148747 0.0 10021056
11:00+11wsw8137428 0.1 10041245
14:00+13wsw815582 0.1 10061509
17:00+11wsw8187019 0.0 10071678
20:00+9wsw815670 0.0 10091186
7 october, fri
fri723:00+9wsw7166919 0.0 10111161
02:00+9sw716805 0.0 10121123
05:00+9sw7168766 0.0 10111145
08:00+11sw71782100 0.1 10091547
11:00+12sw91889100 0.6 10071557
14:00+12sw91989100 1.6 10041571
17:00+12sw81887100 0.3 10031723
20:00+11sw71792100 1.9 10001764
8 october, sat
sat823:00+10sw6129199 3.5 1000935
02:00+8sw6138924 3.6 1000842
05:00+7sw6148715 0.0 999917
08:00+7sw614855 0.0 999901
11:00+10wsw712691 0.0 9991129
14:00+11wsw712577 0.0 9991449
17:00+10w713525 0.0 10001572
20:00+8w513622 0.0 1004690